Retour au catalogue

COSMOS 2251 DEB

ActifLEO
NORAD 35987·DEBRIS·🇷🇺 Russia

Lancé Jun 16, 1993 depuis Plesetsk Cosmodrome

Loading…

Prochains Passages (prochaines 24 heures)

TLE

FraisSource: Space-Track

Époque: Sep 13, 2026, 11:00 UTC

1 35987U 93036AWD 26256.45865287  .00001592  00000-0  46185-3 0  9993
2 35987  73.9987 174.5779 0049580 235.3376 124.3103 14.44532480650305

Suivez COSMOS 2251 DEB en temps réel avec AllMySat

Download on the App Store